Погода в Поселке Курорт Озеро

Россия / Курганская область     55°08′06″N   62°32′04″E
темп.,
°C
ветер,
м/с
пор.,
м/с
влажн.,
%
обл.,
%
осадки,
мм/ч
давл.,
гПа
погр.,
м
16 мая, вс
вс1623:00+21зсз484698 0.0 1020105
02:00+19зюз475048 0.0 1020103
05:00+18з45589 0.0 102171
08:00+23з35486 0.0 1021260
11:00+29зсз45335 0.0 1020997
14:00+32з56225 0.0 10202950
17:00+32зюз56205 0.0 10193710
20:00+25сз7113535 0.2 1019246
17 мая, пн
пн1723:00+21зсз334544 0.6 101916
02:00+19з33495 0.0 101940
05:00+19зсз33515 0.0 102028
08:00+24з35412 0.0 1020215
11:00+29з57250 0.0 10192917
14:00+31з582180 0.0 10183796
17:00+30зсз672517 0.0 10172797
20:00+23зюз51042100 0.0 1017180
18 мая, вт
вт1823:00+21зюз51247100 0.0 1017210
02:00+19зюз485545 0.0 1016114
05:00+17з4126597 0.4 1016260
08:00+21зсз59590 0.0 1016381
11:00+25сз793817 0.0 10151892
14:00+27сз793368 0.0 10152484
17:00+26ссз79305 0.0 10152511
20:00+19ссв7125748 0.0 1017783
19 мая, ср
ср1923:00+15ссв611685 0.0 1020733
02:00+11ссв7128012 0.0 1022672
05:00+12ссв796599 0.0 10231082
08:00+12св686817 0.0 1025838
11:00+16св67495 0.0 10251323
14:00+19св55375 0.0 10251447
17:00+20св443299 0.0 10241470
20:00+17в2247100 0.0 102422
20 мая, чт
чт2023:00+14вюв115055 0.0 102511
02:00+12вюв225233 0.0 102513
05:00+10юз22595 0.0 102616
08:00+16юз344843 0.0 1026340
11:00+21зюз33355 0.0 10261297
14:00+24юз34285 0.0 10241715
17:00+24юз44275 0.0 10231744
20:00+20юз34410 0.0 102251